Regional Weather Roundup
Issued by NWS

Home | Current Version | Previous Version | Graphics & Text | Print | Product List | Glossary On
Versions: 1 2 3 4 5 6 7 8 9 10 11 12 13 14 15 16 17 18 19 20 21 22 23 24 25 26 27 28 29 30 31 32 33 34 35 36 37 38 39 40 41 42 43 44 45 46 47 48 49 50
749
ASUS44 KLIX 020310
RWRLA
LOUISIANA WEATHER ROUNDUP
NATIONAL WEATHER SERVICE NEW ORLEANS LA
1000 PM CDT MON SEP 01 2014

NOTE: "FAIR" INDICATES FEW OR NO CLOUDS BELOW 12,000 FEET WITH NO
      SIGNIFICANT WEATHER AND/OR OBSTRUCTIONS TO VISIBILITY.
      SKY/WX - SKY CONDITION AND SIGNIFICANT WEATHER.
      TMP - AIR TEMPERATURE.    DP   - DEWPOINT TEMPERATURE.
      RH  - RELATIVE HUMIDITY.  PRES - PRESSURE.
      HX  - HEAT INDEX.         WCI  - WIND CHILL INDEX.

*  THESE STATIONS ARE NOT NWS OR FAA STATIONS AND ARE NOT UNDER
   NWS QUALITY CONTROL.

LAZ040-048-061>063-065-066-069-020400-
SOUTHEAST LOUISIANA

CITY           SKY/WX    TMP DP  RH WIND       PRES   REMARKS
N.O. AUDUBON     N/A     81  76  85 MISG        N/A
N.O. INTL ARPT CLOUDY    82  76  81 SE5       30.04S
N.O. LAKEFRONT CLOUDY    79  73  82 SE8       30.05S
N.O. DOWNTOWN* FAIR      81  72  74 SE3       30.05F
SLIDELL        CLOUDY    78  75  90 CALM      30.05S
BATON ROUGE    CLOUDY    79  75  87 SE6       30.02F
BOOTHVILLE     MOCLDY    82  77  84 SE3       30.06R
BELLE CHASSE   CLOUDY    79  75  87 E3        30.04S
BOGALUSA*        N/A     79  74  85 SE5       30.06F
GALLIANO*      NOT AVBL
NEW ROADS*     FAIR      79  76  91 SE6       30.02S
GONZALES*        N/A     80  79  97 SE3       30.03S
HAMMOND*       CLOUDY    77  73  88 SE3       30.05F
HOUMA*         CLOUDY    80  73  80 CALM      30.04S
PORT FOURCHON* PTCLDY    84  77  79 S5        30.06R

$$

LAZ041-044-053-054-020400-
SOUTHWEST LOUISIANA

CITY           SKY/WX    TMP DP  RH WIND       PRES   REMARKS
LAKE CHARLES   PTCLDY    80  78  94 SE6       29.99R
LAFAYETTE      MOCLDY    78  76  93 CALM      30.02R
PATTERSON        N/A     79  77  94 SW9       30.06S
SALT POINT       N/A     83  77  82 CALM      30.03R
NEW IBERIA     PTCLDY    79  76  90 SE6       30.03R
CHENAULT AIRPK PTCLDY    80  77  89 SE7       30.00S

$$

LAZ027-028-020400-
CENTRAL LOUISIANA

CITY           SKY/WX    TMP DP  RH WIND       PRES   REMARKS
FORT POLK      PTCLDY    77  76  96 SE7       29.99S
ALEXANDRIA INT MOCLDY    78  74  87 SE8       29.98R
ALEXANDRIA     MOCLDY    78  75  90 SE3       30.01R

$$

LAZ001-002-020400-
NORTHWEST LOUISIANA

CITY           SKY/WX    TMP DP  RH WIND       PRES   REMARKS
SHREVEPORT     PTCLDY    82  74  76 S9        29.94R
BARKSDALE AFB  CLEAR     79  75  89 SE9       29.95R
DTN SHREVEPORT CLEAR     82  75  79 S10       29.94R

$$

LAZ014-016-020400-
NORTHEAST LOUISIANA

CITY           SKY/WX    TMP DP  RH WIND       PRES   REMARKS
MONROE         MOCLDY    79  74  84 S7        29.99S
TALLULAH       MOCLDY    78  73  84 S8        30.00R

$$




USA.gov is the U.S. government's official web portal to all federal, state and local government web resources and services.